This demonstration page uses our WeatherBlox Daily Observations layout. Learn more.

Left ArrowRight Arrow

Hourly Observations for May 5, 2015

Temp ( °F °C ) Dew Point ( °F °C ) Humidity (%) Winds ( mph kmh ) Pressure ( in mb ) Visibility ( mi km ) Precip ( " mm )
12:53 am 00:53 Cloudy 66 18.9 59 15 78 78 NW 3 6 30.21 1023 10 16 0.00 0.00
1:53 am 01:53 Partly Cloudy 63 17.2 59 15 87 87 Calm 30.22 1023 10 16 0.00 0.00
2:53 am 02:53 Mostly Cloudy 62 16.7 59 15 90 90 Calm 30.21 1023 10 16 0.00 0.00
3:53 am 03:53 Cloudy 60 15.6 58 14.4 93 93 Calm 30.21 1023 10 16 0.00 0.00
4:53 am 04:53 Cloudy 61 16.1 59 15 93 93 Calm 30.22 1024 8 13 0.00 0.00
5:53 am 05:53 Mostly Cloudy 60 15.6 59 15 96 96 Calm 30.23 1024 7 11 0.00 0.00
6:50 am 06:50 Sunny with Mist and Fog 57 14 55 13 94 94 Calm 30.24 1024 3 4 0.00 0.00
6:53 am 06:53 Sunny with Mist and Fog 57 13.9 56 13.3 96 96 Calm 30.24 1024 3 4 0.00 0.00
7:03 am 07:03 Sunny with Mist and Fog 56 13.3 55 12.8 97 97 Calm 30.24 1024 4 6 0.00 0.00
7:53 am 07:53 Sunny with Mist and Fog 62 16.7 60 15.6 93 93 Calm 30.26 1025 5 8 0.00 0.00
8:53 am 08:53 Sunny 69 20.6 60 15.6 73 73 ESE 5 7 30.27 1025 9 14 0.00 0.00
9:53 am 09:53 Sunny 72 22.2 60 15.6 66 66 SE 3 6 30.27 1025 10 16 0.00 0.00
10:53 am 10:53 Sunny 77 25 57 13.9 50 50 VRB 5 7 30.26 1025 10 16 0.00 0.00
11:53 am 11:53 Sunny 79 26.1 56 13.3 45 45 SSW 9 15 30.26 1025 10 16 0.00 0.00
12:53 pm 12:53 Sunny 82 27.8 55 12.8 40 40 SW 8 13 30.24 1024 9 14 0.00 0.00
1:53 pm 13:53 Sunny 84 28.9 52 11.1 33 33 WSW 12 19 30.23 1024 10 16 0.00 0.00
2:53 pm 14:53 Sunny 85 29.4 52 11.1 32 32 SW 8 13 30.22 1023 10 16 0.00 0.00
3:53 pm 15:53 Partly Cloudy 85 29.4 52 11.1 32 32 W 6 9 30.20 1023 10 16 0.00 0.00
4:53 pm 16:53 Mostly Cloudy 83 28.3 53 11.7 36 36 WSW 7 11 30.18 1022 10 16 0.00 0.00
5:53 pm 17:53 Mostly Sunny 82 27.8 53 11.7 37 37 VRB 3 6 30.17 1022 10 16 0.00 0.00
6:53 pm 18:53 Sunny 83 28.3 52 11.1 34 34 SSW 9 15 30.16 1021 10 16 0.00 0.00
7:53 pm 19:53 Sunny 81 27.2 52 11.1 37 37 SSW 3 6 30.16 1021 10 16 0.00 0.00
8:53 pm 20:53 Mostly Clear 69 20.6 57 13.9 66 66 Calm 30.17 1022 10 16 0.00 0.00
9:53 pm 21:53 Clear 65 18.3 57 13.9 76 76 Calm 30.18 1022 10 16 0.00 0.00
10:53 pm 22:53 Clear 63 17.2 57 13.9 81 81 Calm 30.19 1022 10 16 0.00 0.00
11:53 pm 23:53 Clear 61 16.1 56 13.3 84 84 Calm 30.19 1023 10 16 0.00 0.00

Powered by AerisWeather